Simultaneous Nadir Overpasses (SNOs) Predictions

Prediction of SNOs between AQUA and METOP-C Satellite Orbit:

Table of predicted SNOs for the next 14.0 days since TLE Epoch: 9/11/2021
Index Date (AQUA) Time (AQUA) Lat,Lon (AQUA) SZA (AQUA ) Date (METOP-C) Time (METOP-C) Lat,Lon (METOP-C) SZA (METOP-C ) Distance(km) Time Diff (sec)
1 09/13/2021 20:02:42 73.76,-126.32 70.25 09/13/2021 20:01:42 73.76,-126.29 70.26 1.02 60
2 09/13/2021 20:52:09 -73.81, 41.20 109.68 09/13/2021 20:52:22 -73.83, 41.22 109.66 2.23 13
3 09/13/2021 21:41:45 74.27,-152.21 70.82 09/13/2021 21:42:53 74.28,-150.36 70.78 55.92 68
4 09/16/2021 15:36:57 73.75, -59.87 71.33 09/16/2021 15:36:02 73.76, -59.87 71.34 0.92 55
5 09/16/2021 16:26:25 -73.85, 107.54 108.56 09/16/2021 16:26:42 -73.84, 107.65 108.57 3.57 17
6 09/16/2021 17:16:04 74.47, -86.25 72.11 09/16/2021 17:17:10 74.43, -83.56 72.01 80.27 66
7 09/19/2021 11:11:11 73.76, 6.56 72.41 09/19/2021 11:10:21 73.76, 6.54 72.43 0.83 50
8 09/19/2021 12:00:39 -73.85, 173.98 107.47 09/19/2021 12:01:01 -73.86, 174.09 107.48 3.22 22
9 09/22/2021 06:45:26 73.77, 72.97 73.52 09/22/2021 06:44:41 73.76, 72.95 73.51 1.47 45
10 09/22/2021 07:34:53 -73.81,-119.48 106.43 09/22/2021 07:35:22 -73.81,-119.60 106.43 3.59 29
11 09/25/2021 02:19:41 73.80, 139.35 74.64 09/25/2021 02:19:00 73.81, 139.47 74.65 3.67 41
12 09/25/2021 03:09:08 -73.84, -53.09 105.31 09/25/2021 03:09:42 -73.82, -53.18 105.33 3.18 34



Historial Predications of SNOs between AQUA and METOP-C
